Notices

What's New in latest Release from April 7th, 2021:

- Updated Glossary, including Speed of Maximum Gust, and Total Hourly Precipitation

- Updated national and regional climate services offices contacts and prices information

- Addition of station inventory lists for 1981-2010, 1971-2000, and 1961-1990 Normals.

If you haven't already, please take our survey and provide feedback about our website: https://eccc.sondage-survey.ca/f/LanguageSelection.aspx?s=442ca660-fcf1-47c0-95a9-59707d6fd709

Hourly Data Report for February 11, 2004

SHERBROOKE A
QUEBEC

45°26'00.000" N
71°41'00.000" W
241.40 m
7028124
71610
YSC

Download Data

Hourly Data (February 2004)
Hourly Data Report for February 11, 2004
TIME
LST
Temp Definition
°C
Dew Point Definition
°C
Rel Hum Definition
%
Precip. Amount Definition
mm

Wind Dir Definition
10's deg

Wind Spd Definition
km/h
Visibility Definition
km
Stn Press Definition
kPa
Hmdx Definition


Wind Chill Definition


Weather Definition


00:00 -3.3 -8.5 67   25 15 5.6 97.82   -8 Snow
01:00 -3.7 -7.6 74   22 7 2.6 97.81   -7 Snow
02:00 -3.5 -7.5 74   22 13 5.6 97.80   -8 Snow
03:00 -3.9 -7.7 75   22 9 4.0 97.81   -8 Snow
04:00 -3.9 -7.7 75   21 9 3.7 97.81   -8 Snow
05:00 -4.1 -7.7 76   24 11 1.4 97.82   -9 Snow
06:00 -3.9 -7.9 74   25 11 9.7 97.83   -8 Snow
07:00 -4.0 -9.4 66   25 26 15.0 97.88   -11 Snow
08:00 -4.7 -10.9 62   26 20 19.3 97.94   -11 Snow Showers
09:00 -5.1 -9.4 72   26 26 0.8 97.98   -13 Moderate Snow Showers
10:00 -5.8 -11.1 66   27 30 12.9 98.04   -14 Snow Showers
11:00 -7.5 -13.3 63   25 24 6.4 98.19   -15 Snow Showers
12:00 -8.3 -14.4 61   27 28 16.1 98.25   -17 Snow Showers
13:00 -9.4 -15.9 59   25 32 19.3 98.36   -19 Snow Showers
14:00 -9.5 -15.7 61   27 24 19.3 98.45   -18 Snow Showers
15:00 -10.0 -16.0 61   27 28 16.1 98.55   -19 Snow Showers
16:00 -10.0 -17.0 57   25 20 24.1 98.66   -18 Snow Showers
17:00 -10.8 -18.3 54   26 19 24.1 98.73   -19 Mainly Clear
18:00 -12.3 -19.1 57   26 15 15.0 98.88   -20  
19:00 -13.1 -19.4 59   26 17 15.0 98.97   -21  
20:00 -13.8 -19.8 60   24 9 15.0 99.06   -19  
21:00 -14.6 -20.1 63   25 9 15.0 99.15   -20  
22:00 -15.8 -21.0 64   27 9 15.0 99.18   -22  
23:00 -16.7 -21.3 67   24 9 15.0 99.20   -23  

Notes on Data Quality.

Legend

  • E = Estimated
  • M = Missing
  • NA = Not Available*
  • [empty] = Indicates an unobserved value
Date modified: